Probability
0 0 0 0 0 0 0 0 0 0 0 0 0 0 0 0 0 0 0 0 0 0 0 0 0 0 0 0 0 0 0 0 0 0 0 0 0 0 0 0 0 0 0
0 0 0 0 0 0 0 0 0 0 0 0 0 0 0 0 0 0 0 0 0 0 0 0 0 0 0 0 0 0 0 0 0 0 0 0 0 0 0 0 0 0 0
0 0 0 0 0 0 0 0 0 0 0 0 0 0 0 0 0 0 0 0 0 0 0 0 0 0 0 0 0 0 0 0 0 0 0 0 0 0 0 0 0 0 0
0 0 0 0 0 0 0 0 0 0 0 0 0 0 0 0 0 0 0 0 0 0 0 0 0 0 0 0 0 0 0 0 0 0 0 0 0 0 0 0 0 0 0
0 0 0 0 0 0 0 0 0 0 0 0 0 0 0 0 0 0 0 0 0 0 0 0 0 0 0 0 0 0 0 0 0 0 0 0 0 0 0 0 0 0 0
0 0 0 0 0 0 0 0 0 0 0 0 0 0 0 0 0 0 0 0 0 0 0 0 0 0 0 0 0 0 0 0 0 0 0 0 0 0 0 0 0 0 0
0 0 0 0 0 0 0 0 0 0 0 0 0 0 0 0 0 0 0 0 0 0 0 0 0 0 0 0 0 0 0 0 0 0 0 0 0 0 0 0 0 0 0
0 0 0 0 0 0 0 0 0 0 0 0 0 0 0 0 0 0 0 0 0 0 0 0 0 0 0 0 0 0 0 0 0 0 0 0 0 0 0 0 0 0 0
0 0 0 0 0 0 0 0 0 0 0 0 0 0 0 0 0 0 0 0 0 0 0 0 0 0 0 0 0 0 0 0 0 0 0 0 0 0 0 0 0 0 0
0 0 0 0 0 0 0 0 0 0 0 0 0 0 0 0 0 0 0 0 0 0 0 0 0 0 0 0 0 0 0 0 0 0 0 0 0 0 0 0 0 0 0
0 0 0 0 0 0 0 0 0 0 0 0 0 0 0 0 0 0 0 0 0 0 0 0 0 0 0 0 0 0 0 0 0 0 0 0 0 0 0 0 0 0 0
0 0 0 0 0 0 0 0 0 0 0 0 0 0 0 0 0 0 0 0 0 0 0 0 0 0 0 0 0 0 0 0 0 0 0 0 0 0 0 0 0 0 0
0 0 0 0 0 0 0 0 0 0 0 0 0 0 0 0 0 0 0 0 0 0 0 0 0 0 0 0 0 0 0 0 0 0 0 0 0 0 0 0 0 0 0
0 0 0 0 0 0 0 0 0 0 0 0 0 0 0 0 0 0 0 0 0 0 0 0 0 0 0 0 0 0 0 0 0 0 0 0 0 0 0 0 0 0 0
0 0 0 0 0 0 0 0 0 0 0 0 0 0 0 0 0 0 0 0 0 0 0 0 0 0 0 0 0 0 0 0 0 0 0 0 0 0 0 0 0 0 0
0 0 0 0 0 0 0 0 0 0 0 0 0 0 0 0 0 0 0 0 0 0 0 0 0 0 0 0 0 0 0 0 0 0 0 0 0 0 0 0 0 0 0
0 0 0 0 0 0 0 0 0 0 0 0 0 0 0 0 0 0 0 0 0 0 0 0 0 0 0 0 0 0 0 0 0 0 0 0 0 0 0 0 0 0 0
0 0 0 0 0 0 0 0 0 0 0 0 0 0 0 0 0 0 0 0 0 0 0 0 0 0 0 0 0 0 0 0 0 0 0 0 0 0 0 0 0 0 0
0 0 0 0 0 0 0 0 0 0 0 0 0 0 0 0 0 0 0 0 0 0 0 0 0 0 0 0 0 0 0 0 0 0 0 0 0 0 0 0 0 0 0
0 0 0 0 0 0 0 0 0 0 0 0 0 0 0 0 0 0 0 0 0 0 0 0 0 0 0 0 0 0 0 0 0 0 0 0 0 0 0 0 0 0 0
0 0 0 0 0 0 0 0 0 0 0 0 0 0 0 0 0 0 0 0 0 0 0 0 0 0 0 0 0 0 0 0 0 0 0 0 0 0 0 0 0 0 0
0 0 0 0 0 0 0 0 0 0 0 0 0 0 0 0 0 0 0 0 0 0 0 0 0 0 0 0 0 0 0 0 0 0 0 0 0 0 0 0 0 0 0
0 0 0 0 0 0 0 0 0 0 0 0 0 0 0 0 0 0 0 0 0 0 0 0 0 0 0 0 0 0 0 0 0 0 0 0 0 0 0 0 0 0 0
0 0 0 0 0 0 0 0 0 0 0 0 0 0 0 0 0 0 0 0 0 0 0 0 0 0 0 0 0 0 0 0 0 0 0 0 0 0 0 0 0 0 0
0 0 0 0 0 0 0 0 0 0 0 0 0 0 0 0 0 0 0 0 0 0 0 0 0 0 0 0 0 0 0 0 0 0 0 0 0 0 0 0 0 0 0
0 0 0 0 0 0 0 0 0 0 0 0 0 0 0 0 0 0 0 0 0 0 0 0 0 0 0 0 0 0 0 0 0 0 0 0 0 0 0 0 0 0 0
Height
5818 5814 5810 5806 5802 5798 5795 5791 5787 5783 5779 5775 5772 5768 5764 5761 5758 5755 5752 5750 5748 5747 5746 5746 5746 5747 5748 5750 5752 5755 5758 5762 5767 5770 5774 5777 5782 5787 5792 5797 5801 5805 5809
5818 5814 5810 5806 5802 5798 5794 5791 5787 5783 5779 5775 5771 5767 5763 5759 5755 5752 5748 5746 5743 5741 5739 5738 5738 5738 5739 5741 5743 5745 5748 5752 5756 5760 5763 5767 5771 5776 5781 5786 5790 5795 5799
5817 5813 5809 5805 5802 5798 5794 5790 5786 5782 5778 5774 5770 5766 5762 5758 5753 5749 5746 5742 5739 5736 5733 5732 5731 5731 5731 5732 5734 5736 5738 5741 5745 5749 5752 5755 5760 5764 5769 5774 5779 5784 5789
5816 5812 5808 5804 5801 5797 5793 5790 5786 5782 5778 5773 5769 5765 5761 5756 5752 5748 5743 5739 5736 5732 5729 5727 5725 5724 5724 5725 5726 5727 5729 5732 5735 5738 5741 5745 5749 5753 5758 5763 5768 5773 5778
5814 5811 5807 5803 5800 5796 5792 5788 5785 5781 5777 5773 5769 5764 5760 5755 5751 5746 5742 5738 5734 5730 5727 5723 5721 5719 5719 5719 5719 5720 5721 5723 5725 5728 5731 5734 5738 5742 5747 5751 5756 5761 5766
5812 5809 5805 5802 5798 5795 5791 5787 5783 5779 5776 5772 5768 5763 5759 5755 5750 5746 5741 5737 5733 5729 5725 5721 5719 5717 5716 5714 5714 5714 5714 5715 5717 5719 5722 5725 5728 5731 5736 5740 5745 5750 5756
5810 5807 5803 5800 5796 5793 5789 5785 5782 5778 5774 5770 5766 5762 5758 5754 5750 5745 5741 5737 5733 5728 5724 5721 5718 5715 5713 5712 5710 5709 5708 5708 5710 5711 5713 5716 5719 5722 5726 5731 5734 5739 5744
5808 5805 5801 5797 5794 5790 5787 5783 5779 5776 5772 5769 5765 5761 5757 5753 5749 5745 5741 5737 5733 5729 5725 5721 5718 5715 5712 5710 5708 5706 5705 5704 5704 5705 5706 5708 5710 5713 5717 5721 5724 5728 5733
5806 5802 5798 5795 5791 5788 5784 5780 5777 5773 5770 5766 5763 5759 5755 5752 5748 5744 5740 5736 5732 5729 5725 5721 5717 5714 5711 5709 5706 5704 5702 5700 5699 5699 5700 5701 5703 5706 5708 5711 5715 5719 5723
5802 5799 5795 5791 5788 5784 5780 5777 5773 5770 5767 5764 5760 5757 5753 5750 5746 5742 5739 5735 5732 5728 5724 5721 5717 5714 5710 5707 5704 5702 5699 5697 5696 5695 5695 5696 5697 5699 5701 5703 5706 5710 5714
5798 5794 5791 5787 5784 5780 5776 5773 5769 5766 5763 5760 5757 5754 5750 5747 5744 5740 5737 5733 5730 5727 5723 5720 5716 5713 5709 5706 5703 5700 5697 5695 5693 5692 5691 5691 5692 5692 5694 5696 5698 5701 5704
5794 5790 5787 5783 5779 5775 5771 5768 5764 5761 5758 5755 5752 5749 5747 5744 5741 5738 5734 5731 5728 5725 5721 5718 5715 5711 5708 5705 5702 5699 5696 5693 5691 5689 5688 5687 5687 5687 5687 5688 5690 5692 5694
5789 5785 5782 5778 5774 5770 5766 5762 5759 5756 5753 5750 5748 5745 5742 5740 5737 5734 5731 5728 5725 5722 5719 5716 5712 5709 5706 5703 5700 5697 5694 5691 5689 5687 5685 5684 5683 5682 5682 5682 5683 5684 5686
5784 5780 5776 5772 5768 5764 5760 5757 5754 5750 5748 5745 5743 5740 5738 5735 5732 5730 5727 5724 5721 5718 5715 5712 5709 5706 5703 5700 5698 5695 5692 5689 5687 5685 5683 5681 5680 5678 5678 5677 5677 5677 5679
5778 5774 5770 5767 5763 5759 5755 5751 5748 5745 5742 5740 5738 5735 5733 5730 5728 5725 5722 5719 5716 5714 5711 5708 5706 5703 5700 5697 5695 5692 5689 5687 5684 5682 5680 5678 5677 5675 5674 5673 5672 5672 5672
5771 5767 5764 5760 5756 5753 5749 5746 5742 5740 5737 5734 5732 5730 5727 5725 5722 5719 5717 5714 5711 5708 5706 5703 5701 5698 5696 5693 5690 5688 5686 5683 5681 5679 5676 5675 5673 5671 5669 5668 5667 5666 5666
5764 5760 5757 5753 5749 5746 5743 5739 5736 5733 5730 5728 5725 5723 5721 5718 5715 5713 5710 5708 5705 5703 5700 5698 5695 5693 5690 5688 5686 5683 5681 5679 5677 5674 5672 5670 5668 5666 5664 5663 5661 5660 5660
5756 5753 5749 5745 5741 5738 5735 5732 5729 5726 5723 5720 5718 5716 5713 5711 5709 5706 5704 5701 5699 5696 5694 5691 5689 5686 5684 5682 5679 5677 5675 5673 5671 5669 5667 5665 5663 5661 5659 5657 5656 5654 5653
5748 5744 5740 5737 5733 5730 5727 5724 5722 5719 5716 5713 5710 5708 5706 5703 5701 5699 5696 5694 5691 5689 5686 5684 5682 5679 5677 5675 5672 5670 5668 5666 5664 5662 5660 5659 5657 5655 5653 5651 5650 5649 5647
5738 5735 5732 5728 5725 5721 5718 5715 5713 5710 5708 5706 5703 5700 5698 5695 5693 5690 5688 5685 5683 5681 5678 5676 5673 5671 5669 5667 5664 5662 5660 5658 5656 5654 5653 5651 5650 5648 5646 5645 5643 5642 5641
5729 5725 5722 5719 5715 5712 5709 5706 5703 5701 5698 5696 5694 5692 5690 5687 5684 5682 5679 5677 5674 5671 5669 5666 5664 5662 5659 5657 5655 5653 5651 5649 5647 5645 5643 5642 5640 5639 5638 5637 5636 5635 5634
5718 5715 5712 5708 5705 5702 5699 5696 5693 5691 5688 5686 5684 5682 5680 5678 5675 5673 5670 5667 5664 5662 5659 5656 5654 5651 5648 5646 5644 5641 5639 5637 5635 5634 5633 5631 5630 5629 5628 5627 5627 5626 5626
5706 5703 5700 5697 5694 5691 5688 5685 5683 5681 5678 5676 5674 5671 5669 5666 5664 5661 5659 5656 5653 5650 5647 5645 5642 5639 5636 5633 5631 5629 5627 5625 5623 5621 5619 5618 5617 5616 5616 5615 5615 5615 5615
5694 5691 5688 5685 5682 5679 5677 5674 5672 5670 5667 5665 5663 5660 5657 5654 5651 5649 5646 5643 5640 5637 5634 5631 5628 5625 5622 5619 5616 5614 5611 5609 5607 5606 5604 5603 5602 5601 5601 5601 5601 5602 5602
5680 5678 5675 5672 5669 5667 5664 5662 5660 5658 5656 5653 5650 5648 5645 5642 5639 5635 5632 5629 5625 5622 5618 5615 5611 5608 5605 5602 5599 5596 5593 5591 5589 5587 5586 5585 5584 5583 5583 5584 5584 5586 5587
5666 5664 5661 5658 5656 5654 5652 5649 5647 5645 5643 5640 5637 5634 5631 5628 5624 5621 5617 5613 5610 5606 5601 5597 5593 5589 5585 5581 5578 5575 5572 5569 5567 5565 5564 5563 5562 5562 5563 5563 5565 5566 5569
Wind_Speed
19 20 20 21 20 20 20 21 21 20 20 19 19 18 18 17 16 15 14 14 15 16 18 20 23 25 28 31 33 36 38 40 41 42 44 45 45 46 46 46 47 45 44
20 20 20 20 20 20 21 21 21 21 21 20 19 19 19 18 18 17 15 15 15 15 16 18 20 23 26 29 31 33 36 39 41 42 44 46 46 46 47 47 47 47 46
20 20 20 20 20 20 21 21 21 21 21 21 20 20 20 20 19 18 17 16 16 15 15 16 18 20 23 25 28 31 33 36 39 41 43 45 46 47 47 48 48 48 48
20 20 20 20 20 20 20 20 21 21 21 21 21 21 21 21 20 20 19 18 17 16 14 14 15 16 18 21 24 27 30 33 36 38 41 43 45 46 47 47 47 47 48
20 20 20 20 20 20 20 20 20 20 21 21 21 22 21 21 21 21 20 19 18 16 15 14 13 13 14 16 19 22 25 29 32 35 38 41 43 44 45 46 47 48 48
20 20 20 20 20 20 20 20 20 20 20 21 21 21 22 21 21 21 21 20 19 17 16 14 12 10 11 13 15 17 20 24 27 30 34 37 41 43 44 45 46 47 47
20 21 21 21 21 20 20 20 20 20 20 21 21 21 21 21 21 21 21 20 20 18 16 14 12 11 10 10 12 14 16 18 22 25 29 32 36 39 41 42 44 45 46
21 21 21 21 21 21 21 21 21 21 21 21 20 20 20 20 20 21 21 20 19 19 17 15 13 12 11 10 11 11 13 15 18 21 25 28 31 34 37 39 41 43 45
21 22 22 23 23 22 22 22 21 21 21 21 20 20 20 20 20 20 20 20 19 18 17 16 14 13 12 11 11 11 12 13 15 17 21 24 28 30 33 36 38 40 42
23 23 24 24 24 24 23 23 22 22 21 21 20 20 20 20 19 19 19 19 19 18 18 17 16 14 14 13 12 12 11 11 12 15 17 20 24 27 30 33 35 38 40
24 25 26 26 26 25 25 24 23 23 22 21 20 20 20 19 19 19 19 19 19 18 18 17 17 16 15 14 13 12 11 11 11 12 14 17 20 23 27 30 32 34 37
26 27 28 28 28 27 27 26 25 24 23 22 21 20 20 19 19 19 19 19 19 18 18 18 17 17 16 15 15 14 13 12 11 11 13 14 17 19 22 26 29 32 34
28 29 30 30 30 29 28 27 26 25 23 22 21 21 21 20 20 19 19 19 19 19 18 18 18 18 17 16 15 14 14 13 12 11 12 13 14 16 19 22 25 28 31
29 30 31 31 30 30 29 28 26 25 24 23 22 21 21 20 20 20 20 19 19 19 19 19 18 18 18 17 17 16 15 14 13 13 13 13 14 15 16 18 21 23 26
31 31 32 31 31 30 29 28 27 26 25 23 22 22 21 21 21 20 20 20 20 20 20 20 19 19 19 18 18 17 16 16 15 15 14 14 15 16 17 18 20 21 23
32 33 33 33 32 30 29 28 27 27 26 24 23 22 22 22 21 21 21 21 21 21 21 21 21 20 20 20 20 19 19 18 17 17 17 17 17 17 18 18 19 21 23
33 34 34 34 32 31 29 29 29 28 27 26 24 24 24 23 23 23 22 22 22 22 22 22 22 22 22 21 21 21 21 21 20 19 19 19 19 19 19 19 20 21 22
35 35 35 34 33 32 31 30 29 29 29 28 27 26 25 25 25 25 24 24 24 23 23 24 24 24 24 24 23 23 23 23 23 23 22 21 21 20 21 21 21 21 21
36 36 36 35 34 32 32 31 30 29 29 28 28 28 27 27 27 27 26 26 26 26 26 26 26 26 26 26 26 26 26 26 26 25 25 25 24 23 23 22 22 22 22
38 38 37 36 35 34 33 33 32 31 30 29 29 29 29 29 29 29 29 29 29 29 29 29 29 29 29 29 29 29 29 29 29 29 28 28 27 27 26 25 24 24 23
40 39 38 37 37 36 35 34 33 32 31 30 30 30 30 30 31 31 32 32 32 32 32 32 32 32 32 32 33 33 33 33 32 32 32 32 31 30 30 29 28 27 26
41 41 40 40 39 38 37 35 34 33 32 32 32 32 32 32 33 33 34 34 34 35 35 36 36 36 36 36 37 37 37 37 37 36 36 36 36 35 33 33 32 31 30
43 43 42 42 41 39 38 36 35 34 34 34 34 35 35 35 36 36 36 37 37 38 38 39 39 40 40 40 41 41 41 41 42 41 41 40 40 40 39 38 37 35 34
45 45 44 43 42 40 39 38 36 36 36 36 37 37 37 38 39 39 40 40 41 42 42 43 44 44 44 45 45 46 46 46 46 46 46 46 46 45 45 44 43 41 40
47 46 45 44 43 41 40 39 38 38 38 38 39 39 40 40 41 42 43 44 45 46 47 48 48 49 49 50 51 51 51 52 52 52 52 52 52 52 51 50 49 48 46
49 48 47 45 43 41 40 39 39 40 40 41 41 42 43 44 45 46 47 48 49 50 51 52 53 54 55 55 56 56 57 57 58 58 58 58 58 58 57 56 55 54 53
Wind_Direction
356 357 358 359 0 1 2 3 4 3 2 0 359 357 353 348 342 336 326 312 299 287 275 266 259 254 250 246 244 241 238 236 235 235 235 236 236 235 234 233 233 235 235
351 353 354 355 357 359 359 0 1 1 1 0 358 356 355 352 348 344 336 328 316 303 288 276 267 260 255 250 247 245 242 238 237 237 236 237 237 236 236 235 234 234 235
348 350 352 354 355 356 357 358 359 360 0 0 360 358 357 355 353 349 344 338 330 319 304 289 276 267 260 255 251 248 245 242 240 238 238 238 238 237 237 236 236 236 236
347 348 350 352 353 353 353 354 356 358 359 360 0 360 359 358 356 354 350 346 340 333 321 307 291 277 267 261 255 251 247 245 243 240 239 238 238 237 237 237 237 236 236
346 348 349 349 349 349 350 351 353 354 356 358 359 359 359 358 358 358 357 354 349 344 336 326 311 290 278 270 263 258 253 248 245 243 241 240 239 238 237 236 236 236 235
345 346 346 347 347 347 348 349 350 351 353 354 355 356 357 357 358 358 0 359 356 352 348 341 332 314 296 283 272 266 261 253 248 245 243 241 240 239 238 237 236 236 236
342 342 343 343 343 343 344 346 347 348 348 349 351 353 354 355 355 356 359 1 1 359 357 352 346 335 317 301 287 277 269 259 252 248 245 242 241 240 239 238 237 236 235
338 339 340 340 339 338 339 340 341 342 342 343 345 347 349 351 352 354 355 357 359 1 1 360 355 345 331 318 307 294 282 268 258 252 246 242 240 239 239 238 238 237 236
335 336 336 336 335 334 334 334 335 335 336 337 338 340 343 345 347 349 351 352 353 355 357 356 353 348 340 328 318 309 296 280 267 258 250 244 242 242 241 240 239 239 238
333 334 334 333 332 330 329 329 329 329 329 330 332 334 336 338 341 343 345 346 348 349 350 351 349 346 344 337 328 319 309 295 280 267 257 249 247 245 243 241 241 240 239
330 331 331 330 330 328 326 324 324 324 324 324 325 327 329 331 334 336 338 340 341 344 345 346 345 342 340 339 333 324 317 306 292 279 267 258 252 249 246 244 243 242 241
326 327 328 327 327 326 324 322 321 320 320 319 320 321 323 325 327 329 330 332 334 335 338 340 340 339 338 336 335 331 325 316 304 292 281 272 263 256 251 246 244 243 242
322 323 324 324 324 323 321 320 318 317 316 316 317 317 317 319 320 322 323 324 326 328 330 331 333 334 334 332 331 329 326 323 315 305 294 284 276 265 259 253 248 245 242
318 320 321 321 321 320 319 318 316 315 314 314 313 314 314 314 314 315 316 317 318 320 322 324 325 327 328 328 327 324 321 318 314 306 299 292 287 277 269 262 256 252 248
315 317 318 318 318 317 316 315 314 313 312 311 310 311 311 311 310 310 311 311 311 313 314 316 318 320 321 322 322 321 319 315 311 308 302 294 289 284 278 270 264 258 253
313 315 315 315 314 313 312 311 310 310 309 308 307 307 307 307 307 307 306 306 307 308 309 310 311 312 314 315 315 314 313 312 310 305 301 296 291 286 282 277 270 263 258
311 313 313 312 311 310 308 306 306 306 306 305 305 305 304 304 304 304 305 305 305 305 305 306 306 306 307 307 308 308 308 306 305 303 300 297 294 290 284 281 276 270 263
309 311 311 310 309 307 305 304 303 303 302 302 302 302 302 302 302 303 303 303 304 303 303 303 302 302 302 302 301 301 301 301 300 299 298 296 293 290 288 285 280 274 266
306 308 309 308 307 306 304 302 301 300 299 298 298 299 300 301 301 301 302 302 302 302 301 300 300 300 299 299 298 297 296 295 294 294 294 294 292 289 288 286 280 276 270
304 306 307 307 305 304 303 301 299 298 296 295 295 296 298 298 299 299 299 300 300 300 299 299 299 298 298 297 296 295 294 292 291 290 290 289 289 288 286 284 280 275 270
301 303 304 304 303 302 301 299 297 296 294 293 293 293 294 295 296 296 296 297 297 297 297 297 297 296 296 295 294 293 292 290 289 287 286 285 283 282 281 280 278 274 269
299 301 301 301 301 300 299 297 295 293 292 292 292 292 292 293 293 293 293 293 294 294 295 295 295 295 294 293 292 291 290 288 286 285 283 282 280 278 276 274 273 271 268
297 298 299 299 299 298 297 295 292 291 290 291 292 292 292 292 292 292 292 292 292 293 293 293 293 292 292 291 290 289 288 286 284 283 280 278 276 274 272 270 268 266 265
295 297 297 297 296 295 293 292 290 289 289 290 291 291 292 292 292 292 293 293 292 292 292 292 292 291 290 289 289 287 285 283 281 280 278 276 274 271 269 267 265 263 261
294 295 295 295 293 291 290 288 287 287 288 289 290 291 291 291 292 292 293 293 293 293 293 292 292 291 290 289 288 286 284 282 279 277 275 273 271 269 267 264 262 260 258
292 293 293 292 290 288 286 285 285 286 288 289 290 290 291 292 292 293 293 293 293 293 293 293 292 291 290 289 287 286 283 281 279 276 274 272 269 267 264 262 260 257 255